Weather Roundup
Issued by NWS Chicago, IL

Home | Current Version | Previous Version | Graphics & Text | Print | Product List | Glossary On
Versions: 1 2 3 4 5 6 7 8 9 10 11 12 13 14 15 16 17 18 19 20 21 22 23 24 25 26 27 28 29 30 31 32 33 34 35 36 37 38 39 40 41 42 43 44 45 46 47 48 49 50
000
NZUS59 KLOT 260904
HRRLOT

CHICAGO AREA WEATHER ROUNDUP
NATIONAL WEATHER SERVICE CHICAGO/ROMEOVILLE IL
400 AM CDT MON JUN 26 2017

NOTE: "FAIR" INDICATES FEW OR NO CLOUDS BELOW 12,000 FEET WITH NO
SIGNIFICANT WEATHER AND/OR OBSTRUCTIONS TO VISIBILITY.

* THESE STATIONS ARE NOT UNDER NWS QUALITY CONTROL. THEY ALSO MAY NOT
  REPORT WEATHER SUCH AS PRECIPITATION OR FOG.

ILZ005-006-012>014-019>023-261000-
NORTHEAST ILLINOIS

CITY           SKY/WX    TMP DP  RH WIND       PRES   REMARKS
OHARE          CLEAR     54  49  83 W6        30.09S
MIDWAY         CLEAR     57  50  77 W5        30.09F
AURORA         CLEAR     50  48  93 W5        30.11S
LANSING*       CLEAR     51  47  86 CALM      30.11S
JOLIET*        CLEAR     54  51  89 CALM      30.11F
WAUKEGAN       PTCLDY    54  52  93 CALM      30.08R
DUPAGE AIRPORT CLEAR     52  51  97 SW5       30.09S
WHEELING       CLEAR     55  52  89 CALM      30.11R
MORRIS*        CLEAR     53  49  86 W7        30.11S
LEWIS AIRPORT* CLEAR     52  47  82 W6        30.11S
NORTHERLY ISL    N/A     59  49  69 W1          N/A
$$

WIZ051-052-058>065-066-070>072-261000-
SOUTHEAST WISCONSIN

CITY           SKY/WX    TMP DP  RH WIND       PRES   REMARKS
MILWAUKEE      PTCLDY    56  49  77 W8        30.06S
KENOSHA*       PTCLDY    51  47  86 W6        30.08R
RACINE*        CLEAR     54  48  80 W5        30.09R
$$

INZ001>003-010>013-019-020-261000-
NORTHWEST INDIANA

CITY           SKY/WX    TMP DP  RH WIND       PRES   REMARKS
GARY*          CLEAR     56  49  79 SW3       30.11S
MICHIGAN CITY* NOT AVBL
RENSSELAER*    NOT AVBL
VALPARAISO     CLEAR     53  50  89 W6        30.11R
$$

LMZ740>746-261000-
SOUTHERN LAKE MICHIGAN

STATION/POSITION TIME  SKY/WX   TEMP WIND        PRES    VSBY
                                AIR  DIR/SP/G
                 (UTC)          (F)  (DEG/KT/KT) (MB)    (MI)
HARRISON CRIB    0840            61  260/ 11/ 11   N/A
BURNHAM HARBOR   0900            59                N/A
CALUMET HARBOR   0830            58  230/  4/  5 1018.8R
BURNS HARBOR     0840            61  240/  8/ 12 1019.6R
MICHIGAN CITY    0840            61  260/ 14/ 15   N/A
$$

ABBREVIATIONS USED IN REMARKS
   TC - TEMPERATURE IN CELSIUS
  WCI - WIND CHILL INDEX
   HX - HEAT INDEX
  VSB - VISIBILITY
$$




USA.gov is the U.S. government's official web portal to all federal, state and local government web resources and services.